Temp
-8 -9 -9 -9 -9 -9 -8 -9 -8 -8 -9 -9 -10 -9 -9 -9 -10 -10 -10 -9 -10 -10 -10 -11 -11 -11 -11 -10 -10 -10 -9 -10 -10 -9 -10 -10 -10 -10 -10 -10 -10 -10 -10 -10 -10 -10 -10 -10 -10
-9 -9 -9 -9 -9 -9 -9 -9 -9 -9 -9 -9 -9 -10 -9 -9 -10 -10 -10 -10 -10 -10 -10 -11 -11 -11 -11 -11 -10 -10 -10 -10 -10 -10 -10 -10 -10 -10 -10 -10 -10 -10 -10 -10 -10 -10 -10 -10 -10
-9 -9 -9 -9 -9 -9 -9 -9 -9 -9 -9 -9 -9 -9 -9 -10 -10 -10 -10 -10 -9 -9 -10 -11 -11 -11 -11 -10 -10 -10 -10 -10 -10 -10 -10 -10 -10 -10 -10 -10 -10 -10 -10 -10 -10 -10 -10 -10 -10
-9 -9 -9 -9 -9 -8 -9 -9 -9 -9 -10 -10 -10 -9 -10 -10 -10 -10 -10 -10 -9 -10 -10 -10 -11 -11 -10 -10 -10 -10 -11 -10 -10 -10 -10 -10 -10 -10 -10 -10 -10 -10 -10 -10 -10 -10 -10 -10 -10
-9 -9 -9 -9 -8 -9 -9 -9 -10 -10 -10 -10 -10 -10 -10 -9 -10 -10 -10 -10 -10 -10 -10 -10 -10 -10 -10 -10 -10 -11 -10 -10 -10 -10 -10 -10 -10 -10 -10 -10 -10 -10 -10 -10 -10 -10 -10 -11 -11
-9 -9 -9 -9 -9 -9 -9 -10 -10 -10 -10 -10 -10 -10 -10 -10 -10 -10 -10 -10 -10 -10 -10 -10 -10 -10 -10 -10 -10 -10 -10 -10 -10 -10 -10 -10 -10 -10 -10 -10 -10 -10 -10 -10 -10 -10 -11 -11 -11
-9 -9 -9 -9 -9 -10 -9 -10 -10 -10 -10 -10 -10 -10 -10 -10 -10 -10 -10 -10 -11 -10 -10 -10 -10 -10 -10 -10 -10 -10 -10 -10 -10 -10 -10 -10 -10 -10 -10 -10 -10 -10 -10 -10 -11 -11 -11 -11 -11
-9 -10 -9 -9 -9 -9 -10 -10 -10 -10 -10 -10 -10 -10 -10 -10 -10 -10 -10 -10 -11 -11 -10 -10 -10 -10 -10 -10 -10 -10 -10 -10 -10 -10 -10 -10 -10 -10 -10 -10 -10 -10 -11 -11 -11 -11 -11 -11 -11
-10 -10 -9 -9 -9 -10 -10 -10 -10 -10 -10 -10 -10 -10 -10 -10 -10 -10 -10 -10 -10 -10 -10 -10 -10 -10 -10 -10 -10 -10 -10 -10 -10 -10 -10 -10 -10 -10 -10 -10 -10 -10 -10 -10 -11 -11 -11 -11 -11
-9 -10 -9 -9 -10 -10 -10 -10 -10 -10 -10 -10 -10 -10 -10 -10 -10 -10 -10 -10 -10 -10 -10 -10 -10 -10 -10 -10 -10 -10 -10 -10 -10 -10 -10 -10 -10 -10 -10 -10 -10 -10 -10 -11 -11 -11 -11 -11 -11
-10 -10 -10 -9 -9 -10 -10 -10 -10 -10 -10 -10 -10 -10 -10 -10 -10 -10 -10 -10 -10 -10 -10 -10 -10 -10 -10 -10 -10 -10 -10 -10 -10 -10 -10 -10 -10 -10 -10 -11 -11 -11 -11 -11 -11 -11 -11 -11 -11
-10 -11 -9 -10 -10 -10 -10 -10 -10 -10 -10 -10 -10 -10 -10 -10 -10 -10 -10 -10 -10 -10 -10 -10 -10 -10 -10 -10 -10 -10 -10 -10 -10 -10 -10 -10 -10 -11 -11 -11 -11 -11 -11 -11 -11 -11 -11 -11 -11
-10 -10 -10 -10 -10 -10 -10 -10 -10 -10 -10 -10 -10 -10 -10 -10 -10 -10 -10 -10 -10 -10 -10 -10 -10 -10 -10 -10 -10 -10 -10 -10 -10 -10 -10 -10 -10 -11 -11 -11 -11 -11 -11 -11 -11 -11 -11 -11 -11
-10 -10 -10 -10 -10 -10 -10 -10 -10 -10 -10 -10 -10 -10 -10 -10 -10 -10 -10 -10 -10 -10 -10 -10 -10 -10 -10 -10 -10 -10 -10 -10 -10 -10 -10 -10 -10 -11 -11 -11 -11 -11 -11 -11 -11 -11 -11 -11 -11
-10 -11 -10 -10 -10 -10 -10 -10 -10 -10 -10 -10 -10 -10 -10 -10 -10 -10 -10 -10 -10 -10 -10 -10 -10 -10 -10 -10 -10 -10 -10 -10 -10 -11 -11 -11 -11 -11 -11 -11 -11 -11 -11 -11 -11 -11 -11 -11 -11
-11 -11 -10 -10 -10 -11 -10 -10 -10 -10 -10 -10 -10 -10 -10 -10 -10 -10 -10 -10 -10 -10 -10 -10 -10 -10 -10 -10 -10 -10 -11 -11 -11 -11 -11 -11 -11 -11 -11 -11 -11 -11 -11 -11 -11 -11 -11 -11 -12
-11 -11 -10 -11 -11 -11 -10 -11 -10 -11 -10 -10 -10 -10 -10 -10 -10 -10 -10 -10 -10 -10 -10 -10 -10 -10 -10 -10 -10 -11 -11 -11 -11 -11 -11 -11 -11 -11 -11 -11 -11 -11 -11 -11 -12 -12 -12 -12 -12
-11 -11 -11 -11 -11 -11 -10 -11 -10 -11 -10 -10 -10 -10 -10 -10 -10 -10 -10 -10 -10 -10 -10 -10 -10 -10 -10 -10 -11 -11 -11 -11 -11 -11 -11 -11 -11 -11 -11 -11 -12 -12 -12 -12 -12 -12 -12 -12 -12
-12 -12 -11 -11 -11 -11 -11 -11 -10 -10 -10 -10 -10 -10 -10 -10 -10 -10 -10 -10 -10 -10 -10 -10 -11 -11 -11 -11 -11 -11 -11 -11 -11 -11 -12 -11 -11 -12 -12 -12 -12 -12 -12 -12 -12 -12 -12 -12 -12
-12 -12 -12 -11 -11 -11 -11 -11 -11 -11 -10 -10 -10 -10 -10 -10 -10 -10 -10 -10 -10 -11 -11 -11 -11 -11 -11 -11 -11 -11 -11 -11 -11 -11 -11 -12 -12 -12 -12 -12 -12 -12 -12 -12 -12 -12 -12 -12 -12
-12 -12 -11 -11 -12 -12 -11 -11 -11 -10 -10 -11 -11 -10 -11 -10 -10 -10 -10 -10 -11 -11 -11 -11 -11 -11 -11 -11 -11 -11 -11 -11 -11 -12 -12 -12 -12 -12 -12 -12 -12 -12 -12 -12 -12 -12 -12 -12 -12
-13 -12 -12 -11 -12 -12 -11 -11 -11 -11 -10 -11 -11 -10 -10 -10 -10 -10 -10 -10 -10 -11 -11 -11 -11 -11 -11 -11 -11 -11 -11 -12 -12 -12 -12 -12 -12 -12 -12 -12 -12 -12 -12 -12 -12 -12 -12 -12 -12
-13 -13 -12 -12 -12 -12 -11 -11 -11 -11 -10 -10 -11 -11 -11 -11 -10 -10 -10 -10 -10 -10 -11 -11 -11 -11 -11 -11 -11 -11 -12 -12 -12 -12 -12 -12 -12 -12 -12 -12 -12 -12 -12 -12 -12 -12 -12 -12 -12
-14 -14 -13 -13 -12 -12 -11 -11 -11 -11 -11 -11 -11 -11 -11 -11 -11 -10 -10 -11 -11 -11 -11 -11 -11 -11 -11 -11 -11 -11 -11 -12 -12 -12 -12 -12 -12 -12 -12 -12 -12 -12 -12 -12 -12 -13 -13 -13 -13
-14 -14 -14 -14 -12 -11 -12 -11 -10 -11 -11 -11 -11 -11 -11 -11 -11 -11 -11 -10 -11 -11 -11 -11 -11 -11 -11 -11 -11 -11 -12 -12 -12 -12 -12 -12 -12 -12 -12 -13 -13 -13 -13 -12 -13 -13 -13 -13 -14
-14 -14 -14 -13 -13 -12 -12 -11 -10 -11 -11 -11 -11 -11 -11 -11 -11 -11 -11 -11 -11 -11 -11 -11 -11 -11 -11 -11 -11 -12 -12 -12 -12 -12 -12 -12 -12 -12 -13 -13 -13 -13 -13 -13 -13 -13 -14 -14 -14
-15 -15 -15 -14 -14 -13 -12 -11 -11 -11 -11 -11 -11 -11 -11 -11 -11 -11 -11 -11 -11 -11 -11 -11 -11 -11 -11 -11 -12 -12 -12 -12 -12 -12 -12 -12 -13 -13 -13 -13 -13 -13 -13 -14 -14 -14 -15 -15 -15
-15 -15 -15 -15 -14 -13 -12 -12 -12 -11 -12 -12 -11 -12 -12 -12 -12 -12 -12 -11 -12 -12 -12 -12 -12 -12 -12 -12 -12 -12 -12 -12 -13 -13 -13 -13 -13 -13 -13 -13 -13 -14 -14 -15 -15 -15 -16 -16 -16
-15 -15 -15 -15 -15 -14 -13 -12 -12 -12 -12 -12 -12 -12 -12 -12 -12 -12 -12 -12 -12 -12 -12 -12 -12 -12 -12 -12 -12 -13 -13 -13 -13 -13 -13 -13 -13 -14 -14 -14 -15 -15 -15 -15 -16 -16 -16 -16 -16
-16 -16 -16 -16 -14 -14 -14 -13 -12 -12 -13 -13 -13 -13 -13 -13 -13 -13 -13 -13 -13 -13 -13 -13 -13 -13 -13 -13 -13 -13 -13 -13 -13 -13 -14 -14 -14 -14 -15 -15 -15 -15 -16 -16 -16 -16 -16 -16 -16
Height
5841 5844 5846 5850 5854 5853 5854 5855 5856 5856 5856 5856 5854 5855 5855 5855 5855 5856 5853 5851 5850 5849 5852 5853 5855 5858 5861 5863 5866 5868 5869 5870 5872 5872 5873 5874 5876 5878 5880 5881 5882 5882 5882 5881 5881 5880 5880 5879 5878
5841 5843 5846 5849 5851 5852 5855 5855 5856 5857 5857 5857 5857 5856 5856 5856 5855 5855 5855 5853 5851 5850 5852 5854 5855 5858 5862 5865 5866 5867 5869 5871 5872 5872 5875 5877 5878 5879 5881 5881 5881 5881 5881 5881 5880 5879 5879 5878 5878
5838 5841 5845 5848 5848 5847 5852 5855 5856 5858 5859 5859 5859 5857 5857 5857 5856 5856 5857 5855 5853 5852 5853 5854 5856 5859 5862 5865 5867 5868 5869 5871 5873 5873 5875 5878 5879 5880 5881 5881 5881 5881 5880 5881 5880 5879 5879 5878 5878
5836 5841 5846 5847 5848 5851 5853 5854 5857 5858 5859 5859 5860 5858 5858 5859 5860 5859 5860 5859 5857 5855 5856 5858 5860 5862 5865 5867 5868 5868 5870 5872 5874 5875 5877 5878 5879 5880 5881 5881 5881 5881 5881 5880 5880 5879 5879 5878 5877
5834 5838 5841 5843 5847 5850 5852 5856 5858 5858 5859 5860 5860 5859 5859 5861 5862 5861 5861 5862 5860 5859 5859 5860 5863 5864 5866 5868 5869 5867 5871 5873 5874 5875 5876 5878 5879 5880 5880 5881 5881 5881 5881 5880 5880 5879 5879 5878 5877
5832 5835 5840 5843 5847 5850 5853 5855 5857 5859 5860 5861 5862 5861 5860 5862 5864 5863 5864 5864 5862 5863 5864 5864 5865 5866 5868 5869 5870 5871 5872 5874 5875 5877 5878 5879 5879 5880 5881 5881 5881 5881 5881 5880 5880 5879 5878 5877 5877
5829 5834 5839 5841 5844 5848 5852 5854 5856 5858 5859 5862 5862 5862 5861 5863 5866 5866 5866 5867 5868 5866 5867 5867 5868 5869 5870 5871 5872 5873 5875 5877 5877 5878 5879 5880 5880 5881 5881 5881 5881 5881 5881 5881 5880 5879 5878 5877 5876
5827 5832 5835 5838 5843 5846 5850 5853 5855 5858 5860 5861 5863 5864 5863 5864 5867 5869 5869 5870 5870 5869 5869 5870 5871 5871 5873 5875 5875 5876 5878 5878 5879 5879 5880 5881 5881 5881 5882 5882 5882 5882 5881 5880 5879 5879 5877 5876 5875
5825 5831 5834 5838 5842 5846 5848 5852 5856 5856 5859 5861 5863 5863 5865 5865 5867 5870 5872 5873 5874 5873 5873 5873 5873 5874 5875 5877 5879 5879 5880 5880 5881 5881 5882 5882 5882 5883 5882 5882 5882 5881 5880 5880 5879 5878 5877 5876 5874
5821 5829 5833 5835 5839 5844 5846 5849 5854 5857 5858 5860 5862 5864 5865 5866 5867 5869 5871 5873 5875 5876 5876 5875 5875 5876 5877 5878 5879 5880 5881 5881 5881 5882 5882 5882 5882 5882 5882 5882 5881 5880 5879 5878 5877 5876 5875 5874 5873
5821 5827 5829 5833 5839 5843 5846 5848 5852 5855 5857 5859 5861 5863 5865 5867 5868 5870 5872 5874 5875 5875 5877 5879 5879 5878 5879 5880 5881 5881 5882 5882 5882 5883 5883 5883 5882 5882 5882 5881 5880 5879 5878 5877 5876 5875 5874 5873 5871
5817 5822 5827 5832 5835 5839 5843 5847 5851 5853 5857 5859 5860 5862 5865 5866 5869 5871 5873 5874 5876 5877 5877 5879 5881 5881 5881 5882 5882 5883 5883 5883 5883 5883 5883 5883 5882 5882 5881 5880 5879 5878 5878 5877 5876 5875 5873 5872 5870
5814 5820 5828 5829 5832 5838 5841 5844 5849 5852 5854 5856 5859 5861 5864 5866 5868 5870 5873 5875 5877 5877 5878 5879 5881 5882 5883 5883 5884 5884 5884 5884 5884 5883 5883 5882 5882 5882 5881 5880 5879 5878 5878 5877 5876 5875 5873 5872 5870
5809 5818 5825 5826 5831 5834 5839 5843 5846 5850 5852 5855 5858 5860 5863 5865 5868 5870 5872 5873 5876 5877 5878 5878 5881 5882 5882 5883 5883 5883 5884 5884 5883 5883 5882 5882 5882 5881 5880 5880 5879 5877 5876 5875 5874 5873 5871 5870 5868
5802 5811 5817 5822 5826 5830 5836 5841 5844 5847 5851 5853 5856 5858 5861 5863 5865 5868 5872 5874 5875 5877 5877 5879 5879 5880 5881 5882 5882 5882 5882 5882 5882 5882 5881 5881 5880 5879 5878 5877 5877 5876 5875 5874 5872 5871 5869 5867 5865
5801 5805 5810 5817 5822 5827 5833 5836 5838 5842 5847 5850 5854 5856 5858 5861 5864 5866 5869 5871 5873 5875 5875 5876 5877 5877 5879 5880 5880 5880 5880 5880 5880 5879 5879 5879 5878 5877 5876 5875 5874 5873 5871 5870 5869 5867 5865 5863 5861
5794 5801 5807 5812 5817 5824 5830 5831 5838 5840 5843 5847 5851 5854 5856 5859 5861 5864 5867 5868 5870 5872 5873 5874 5874 5875 5876 5877 5878 5878 5877 5877 5877 5877 5876 5875 5874 5874 5873 5872 5871 5870 5868 5866 5864 5862 5860 5857 5855
5788 5795 5801 5807 5815 5821 5826 5829 5835 5836 5839 5844 5848 5851 5855 5857 5859 5862 5864 5865 5866 5867 5869 5870 5871 5872 5872 5873 5873 5874 5874 5873 5873 5872 5871 5871 5870 5870 5869 5869 5868 5866 5863 5861 5858 5856 5854 5852 5849
5788 5794 5799 5806 5812 5817 5823 5825 5829 5832 5835 5840 5844 5847 5851 5853 5856 5857 5860 5862 5862 5864 5865 5866 5867 5868 5869 5868 5868 5868 5869 5869 5868 5867 5866 5865 5865 5864 5863 5862 5861 5859 5857 5854 5852 5849 5846 5844 5841
5779 5784 5790 5797 5806 5811 5814 5820 5824 5827 5832 5836 5841 5845 5847 5850 5852 5854 5856 5858 5858 5859 5860 5861 5862 5863 5864 5863 5863 5864 5863 5862 5861 5861 5860 5860 5859 5858 5857 5855 5853 5852 5850 5847 5844 5842 5840 5837 5833
5775 5781 5788 5796 5801 5804 5809 5814 5817 5822 5829 5831 5835 5839 5842 5845 5848 5850 5852 5853 5853 5854 5855 5856 5856 5857 5857 5858 5857 5858 5858 5856 5854 5854 5853 5852 5851 5850 5850 5848 5846 5843 5842 5840 5836 5833 5830 5827 5824
5769 5777 5782 5788 5793 5796 5802 5808 5811 5816 5821 5825 5829 5833 5836 5840 5843 5845 5846 5847 5848 5848 5849 5850 5850 5850 5850 5852 5851 5851 5851 5850 5849 5848 5846 5845 5843 5842 5841 5839 5838 5836 5834 5831 5827 5824 5821 5818 5814
5762 5770 5776 5781 5786 5790 5796 5801 5806 5810 5815 5821 5825 5828 5831 5833 5836 5839 5839 5841 5842 5843 5844 5844 5844 5844 5844 5844 5845 5844 5843 5842 5842 5841 5840 5838 5836 5834 5833 5831 5830 5827 5825 5822 5819 5815 5811 5806 5803
5756 5763 5769 5773 5778 5781 5790 5793 5798 5802 5810 5814 5820 5822 5825 5827 5828 5832 5833 5834 5836 5836 5837 5837 5838 5837 5837 5837 5837 5837 5836 5835 5834 5833 5832 5831 5829 5827 5825 5823 5820 5817 5815 5812 5808 5804 5800 5795 5791
5749 5757 5759 5762 5765 5773 5780 5783 5791 5797 5805 5811 5813 5816 5819 5821 5823 5825 5826 5827 5828 5829 5830 5831 5831 5831 5830 5830 5829 5829 5828 5828 5827 5825 5824 5823 5821 5819 5816 5814 5811 5808 5804 5800 5797 5793 5788 5783 5778
5745 5749 5750 5754 5759 5768 5772 5776 5787 5795 5801 5805 5807 5809 5812 5814 5816 5817 5818 5819 5820 5821 5823 5823 5823 5823 5822 5822 5821 5821 5820 5819 5818 5817 5816 5814 5811 5809 5807 5804 5801 5797 5793 5789 5785 5781 5776 5771 5766
5735 5736 5745 5748 5752 5758 5763 5772 5780 5787 5790 5795 5799 5802 5804 5806 5807 5808 5810 5811 5813 5814 5815 5815 5816 5815 5814 5813 5813 5812 5812 5811 5809 5808 5807 5804 5802 5798 5795 5792 5789 5785 5781 5777 5773 5768 5763 5759 5754
5729 5737 5739 5741 5747 5751 5756 5762 5770 5779 5784 5788 5791 5792 5794 5796 5797 5800 5802 5803 5804 5805 5805 5806 5806 5806 5805 5805 5804 5803 5803 5801 5800 5798 5796 5794 5790 5787 5784 5781 5777 5773 5769 5765 5761 5757 5752 5747 5741
5721 5724 5729 5735 5739 5743 5747 5755 5765 5771 5775 5778 5780 5782 5785 5787 5789 5791 5793 5794 5795 5796 5796 5796 5797 5797 5797 5796 5795 5794 5793 5792 5790 5788 5785 5782 5779 5776 5772 5768 5764 5761 5756 5752 5747 5743 5739 5734 5729
5712 5720 5722 5726 5735 5735 5740 5749 5757 5763 5766 5769 5771 5774 5776 5778 5780 5782 5784 5785 5786 5786 5786 5787 5787 5787 5786 5786 5785 5784 5782 5780 5778 5775 5771 5769 5765 5762 5758 5755 5751 5747 5743 5740 5736 5732 5726 5721 5716
Wind_Speed
19 19 18 17 15 11 10 8 6 5 5 4 6 5 6 6 6 6 8 6 2 2 1 6 10 14 9 13 11 8 7 6 5 3 5 9 9 6 4 4 4 5 5 6 6 7 8 9 10
23 21 19 18 17 14 11 10 9 8 7 7 8 7 8 7 9 10 10 13 12 12 7 6 9 13 13 11 12 8 6 6 2 8 9 4 4 1 1 3 4 4 6 7 8 8 9 10 11
25 23 22 21 21 20 17 13 10 9 9 11 11 14 14 14 14 13 11 13 15 16 14 11 10 9 8 9 8 8 8 4 1 5 5 3 2 1 3 4 5 5 5 6 8 8 10 11 12
27 24 23 22 19 14 16 15 12 11 11 11 12 16 17 15 16 16 12 14 17 15 15 15 13 11 9 5 2 2 10 6 3 5 5 4 4 3 3 4 5 6 7 9 10 11 11 11 12
30 27 27 25 20 19 18 15 14 12 11 10 12 15 16 14 14 17 17 15 17 18 18 13 11 9 8 7 8 13 11 8 8 8 8 7 7 7 7 6 7 8 9 9 10 10 11 12 13
31 29 26 25 22 21 20 19 16 13 12 11 11 13 15 14 12 15 16 16 19 19 18 18 16 16 16 15 15 16 15 13 12 10 9 8 8 8 8 7 7 8 9 10 10 11 11 12 12
33 30 28 28 26 24 22 20 18 15 13 11 11 12 15 14 11 12 15 15 16 18 19 18 18 18 17 15 16 15 14 13 12 11 10 10 9 9 8 8 8 8 9 9 9 10 10 11 13
35 33 31 28 28 26 24 21 18 16 14 13 11 11 13 13 11 9 11 13 14 15 17 17 17 16 15 14 14 13 12 12 12 11 10 10 10 9 9 8 8 8 9 10 12 12 13 14 15
37 33 30 28 27 27 26 23 19 19 17 15 12 11 10 10 11 9 9 10 11 13 15 16 16 16 15 14 14 14 13 13 12 10 9 9 9 8 9 9 10 10 11 12 13 14 15 16 17
40 36 32 32 30 28 27 25 21 19 18 16 12 10 10 9 10 9 8 7 8 9 10 12 13 13 13 13 12 12 11 11 10 9 9 9 9 9 9 9 9 10 11 12 13 14 14 15 16
39 37 38 34 29 28 26 25 24 21 19 17 14 11 11 9 9 8 7 5 5 7 8 9 10 12 12 12 12 11 11 9 8 8 7 7 7 7 8 9 10 11 12 13 14 14 15 15 16
42 42 39 35 34 31 29 26 25 23 18 17 16 13 12 10 9 8 6 6 5 5 7 8 8 9 9 9 9 9 10 10 10 9 9 9 9 9 10 10 11 12 13 13 13 14 14 15 15
42 42 39 38 36 32 30 29 27 24 22 20 18 16 13 12 10 9 7 6 6 7 6 6 5 5 5 5 6 6 7 8 8 8 8 9 9 10 10 11 11 11 11 13 14 15 16 16 17
45 43 42 40 37 35 33 31 28 26 24 22 19 17 15 13 11 9 8 8 8 8 7 6 4 3 1 0 1 3 5 6 7 8 9 10 10 11 12 12 12 13 14 15 16 17 18 20 20
50 47 46 44 40 37 36 33 30 28 26 24 22 19 17 16 14 11 9 8 8 7 7 6 5 6 5 6 6 6 7 8 8 9 9 10 12 13 14 15 16 16 17 19 20 21 21 22 23
49 50 51 46 42 40 38 36 36 31 28 26 24 22 20 18 16 14 14 12 11 11 10 9 11 11 11 10 11 11 12 13 14 14 15 14 15 16 16 17 18 18 20 21 23 24 24 25 25
53 50 52 48 44 42 40 38 34 32 29 27 25 22 21 20 17 15 15 15 15 16 16 16 16 16 16 16 16 17 17 18 19 18 18 18 19 19 21 20 21 22 24 25 26 27 29 30 32
56 54 52 49 45 42 41 39 36 34 32 29 27 23 22 20 17 16 17 17 17 18 19 20 21 20 21 20 21 21 22 22 22 23 22 22 24 25 26 26 26 27 28 30 31 33 34 35 37
51 51 51 46 45 44 41 41 40 38 34 32 29 26 24 20 18 18 17 20 19 20 21 22 22 22 22 23 24 25 25 26 26 26 27 28 28 28 29 30 30 31 33 34 36 37 39 40 42
57 55 54 51 46 46 47 44 42 40 36 34 30 28 25 22 21 20 19 20 21 22 24 25 25 26 25 27 27 27 28 30 31 31 31 32 33 33 33 34 36 37 38 39 41 42 44 45 47
55 54 53 49 46 47 47 46 44 43 36 36 32 29 27 24 22 21 22 22 23 24 25 27 28 29 29 29 30 30 31 32 34 34 35 36 37 37 38 39 40 41 42 44 45 46 47 48 50
53 54 52 52 49 50 50 49 45 44 41 37 34 32 29 27 25 24 24 23 25 25 26 27 29 30 30 29 32 32 33 34 36 37 38 39 40 40 41 41 42 43 44 45 47 49 51 52 53
51 51 51 51 51 52 52 52 48 48 44 40 37 34 31 29 27 27 26 26 27 27 29 30 31 32 33 33 34 35 37 37 38 39 40 41 42 43 44 45 46 46 48 49 51 52 53 55 57
51 49 50 51 52 56 54 54 53 51 47 43 38 36 34 32 30 31 29 29 30 30 31 32 33 33 34 35 36 36 38 39 39 40 42 43 43 45 45 47 48 50 51 52 54 55 57 59 60
50 49 50 52 57 60 57 58 56 52 46 40 40 38 36 35 33 34 32 33 33 33 33 34 35 36 36 37 37 38 39 40 40 41 42 43 44 46 48 49 50 51 53 55 56 58 59 60 61
50 51 53 53 55 57 55 58 55 49 45 43 42 40 39 37 37 36 36 36 36 35 36 37 37 38 39 40 40 40 40 41 42 44 45 46 46 48 49 50 52 54 56 58 59 61 61 60 61
50 52 50 52 53 54 55 56 53 50 49 45 42 40 40 39 39 39 38 38 37 37 37 38 40 41 43 43 42 42 42 42 43 44 45 47 48 50 52 54 56 57 58 59 59 58 59 62 63
47 46 47 50 50 52 54 54 53 49 45 43 43 42 41 41 40 39 39 39 38 38 38 39 40 41 42 41 41 42 43 44 45 46 48 50 52 53 54 55 57 56 56 56 59 61 61 60 61
53 52 48 49 48 50 52 53 49 44 43 43 43 43 41 40 40 38 38 38 38 39 39 40 40 40 41 42 43 44 46 47 49 50 51 52 53 53 52 52 54 58 60 60 58 57 57 59 61
48 50 47 48 49 51 50 50 48 44 41 41 39 38 37 38 38 38 38 38 38 39 38 38 39 42 44 45 45 47 49 49 50 51 53 53 53 53 55 59 58 57 54 53 54 57 60 63 65
Wind_Direction
177 174 170 171 169 158 163 136 131 116 100 98 87 93 79 67 66 59 39 16 53 92 162 214 202 208 175 201 202 203 202 215 225 170 157 158 155 159 208 255 296 314 322 319 321 323 325 334 335
178 173 175 174 169 161 151 144 131 112 105 100 98 91 77 74 69 67 64 74 86 94 92 133 170 188 202 211 213 218 227 207 153 180 159 138 128 139 7 337 318 318 327 334 341 346 345 346 347
177 177 179 178 184 168 160 153 137 128 116 101 96 90 80 78 79 79 77 75 87 87 81 119 128 138 163 201 219 247 242 235 236 350 95 114 108 47 8 327 332 343 2 356 355 1 3 359 356
180 179 181 184 191 174 162 154 155 145 126 112 103 93 85 75 81 79 75 80 83 90 97 99 101 110 124 122 117 284 209 152 76 59 69 74 49 32 35 32 22 18 21 17 6 3 3 1 7
184 182 187 188 182 173 167 163 163 151 135 123 112 99 95 81 84 84 79 80 85 84 90 109 109 112 110 99 83 71 101 88 83 88 92 96 89 77 63 47 30 19 18 16 18 15 12 9 8
186 185 190 183 184 177 173 173 164 160 150 138 122 111 100 91 84 85 83 82 86 85 89 94 96 97 94 93 89 89 94 93 89 87 84 77 70 58 53 45 38 30 21 14 13 13 10 6 359
185 186 190 188 179 181 180 177 171 166 159 145 133 123 108 98 84 84 87 84 84 90 90 89 89 88 86 83 82 80 80 80 77 71 65 58 51 49 39 35 28 19 17 9 2 357 352 348 345
188 188 188 188 182 179 181 180 174 169 161 153 143 122 113 107 92 79 82 86 90 87 88 90 90 88 87 85 84 83 79 76 73 68 64 62 57 51 44 35 30 20 8 3 1 355 352 348 346
189 191 188 183 186 176 178 176 177 172 166 158 157 144 133 122 107 92 79 76 79 89 90 89 89 88 87 85 84 83 79 75 70 67 62 55 49 39 31 21 14 7 360 354 350 346 344 342 339
190 190 187 184 182 180 177 174 180 178 175 170 168 164 148 140 128 118 112 98 88 81 87 94 96 94 92 90 85 79 74 69 59 48 39 32 27 19 10 2 355 348 347 343 342 342 340 338 337
191 189 191 184 178 182 181 179 184 183 184 179 179 179 168 159 152 135 128 115 106 107 92 83 88 92 90 86 79 73 65 55 47 39 31 24 21 11 5 1 356 355 354 351 350 347 344 344 342
193 195 192 186 185 187 187 186 192 190 188 188 185 183 179 171 166 153 156 133 131 111 103 101 97 93 88 83 75 63 52 44 37 31 24 19 15 7 3 2 2 1 358 357 354 350 349 346 345
195 198 192 194 190 190 192 192 193 186 189 190 185 183 182 181 176 174 174 163 155 142 128 118 114 101 72 62 54 41 34 30 23 19 12 1 355 354 353 353 352 353 353 348 345 344 345 344 344
198 199 198 197 195 194 194 194 192 192 192 194 194 191 188 190 190 187 184 176 174 179 171 162 165 181 210 258 348 348 346 346 348 351 352 346 338 334 332 333 331 329 329 327 327 329 331 329 330
198 198 200 200 197 198 197 200 197 199 200 199 200 198 197 204 202 197 203 200 201 204 215 217 218 239 255 273 288 301 305 309 313 318 320 325 323 322 320 321 323 322 320 318 318 319 319 320 322
197 200 202 201 198 201 201 203 203 205 204 208 207 203 204 210 211 208 217 216 220 228 229 232 241 247 255 266 279 286 291 295 300 303 307 311 308 309 310 312 314 314 313 314 315 315 313 312 312
200 202 205 202 201 203 203 209 206 208 205 207 209 205 205 210 208 212 221 224 232 240 241 247 248 251 258 263 270 278 282 285 288 291 294 295 294 297 300 306 309 310 309 309 308 307 306 307 307
201 203 205 204 203 205 206 211 208 209 211 213 215 214 216 219 220 222 230 231 234 239 248 252 254 260 265 271 272 274 276 279 283 282 282 286 290 295 301 304 304 303 302 302 301 301 301 302 301
205 209 211 207 206 208 209 212 209 214 213 216 216 217 220 223 231 232 237 245 244 247 250 254 258 260 265 266 270 274 277 281 280 281 282 284 287 291 293 296 295 295 295 296 297 298 299 299 301
208 206 209 209 205 211 212 212 215 217 214 220 221 223 227 227 235 243 249 252 255 255 256 258 259 264 265 267 269 271 274 276 278 281 282 285 287 289 290 291 292 294 294 295 297 299 301 302 303
211 211 213 210 211 215 215 216 217 221 216 225 226 231 235 238 244 250 256 258 259 258 258 259 261 262 263 265 269 271 272 273 277 279 282 284 286 287 289 289 290 292 295 297 298 298 300 300 301
215 214 215 214 214 217 219 219 220 223 222 225 230 232 237 243 246 251 257 259 263 264 265 266 266 268 270 268 270 273 273 273 275 279 280 282 285 286 287 289 290 291 292 293 294 297 299 299 299
216 217 217 219 219 220 220 222 219 224 226 229 233 238 242 247 250 254 256 260 260 262 263 263 265 268 270 272 271 272 274 275 276 277 278 281 283 285 287 289 291 292 294 295 296 297 297 298 298
217 218 221 223 223 223 222 225 223 225 227 232 237 242 247 251 252 255 259 259 261 262 263 264 265 266 268 269 270 270 270 273 275 277 279 281 283 285 287 288 290 292 294 295 296 296 297 297 298
217 217 221 223 223 224 224 226 226 230 230 233 241 245 249 253 257 259 260 261 261 262 264 264 266 267 269 270 271 272 273 275 277 279 280 282 283 285 287 289 291 293 294 295 295 296 296 297 298
222 220 223 226 228 228 230 230 230 236 237 235 241 247 250 253 256 259 261 262 262 264 265 265 266 267 269 270 271 272 274 276 278 280 282 284 286 288 291 292 293 293 293 294 295 295 297 297 298
222 223 226 229 231 232 233 234 235 236 239 240 244 247 252 255 257 259 259 260 261 262 263 264 266 267 268 270 272 274 276 278 280 282 286 287 288 289 290 291 292 293 293 294 294 296 296 296 298
228 230 231 233 235 237 236 236 238 238 243 246 248 251 252 254 256 258 259 260 261 262 262 264 264 266 269 272 275 277 280 282 284 285 287 287 288 290 291 291 291 292 294 295 295 295 297 299 300
229 232 233 234 236 240 241 240 240 243 244 246 248 251 255 256 257 258 259 259 260 261 261 263 266 270 272 274 276 279 281 282 284 286 286 287 289 291 291 292 293 293 293 294 296 298 300 301 302
226 229 235 240 240 243 245 244 245 244 246 247 249 251 253 255 256 257 257 257 258 260 262 266 269 272 274 277 280 282 283 285 287 287 288 291 291 290 291 292 292 293 295 297 299 301 301 300 300